Temp
-10 -9 -10 -11 -10 -10 -10 -10 -10 -10 -10 -9 -9 -9 -9 -9 -9 -9 -9 -9 -9 -9 -9 -9 -9 -9 -9 -9 -11 -11 -12 -13 -13 -14 -16 -17 -17 -17 -17 -16 -15 -15 -15 -15
-10 -10 -11 -10 -10 -10 -10 -10 -10 -10 -10 -9 -9 -9 -9 -9 -9 -9 -9 -9 -9 -9 -9 -9 -9 -9 -9 -10 -11 -12 -12 -13 -13 -14 -15 -17 -17 -17 -17 -16 -16 -16 -16 -16
-10 -10 -11 -10 -11 -10 -10 -10 -10 -10 -10 -10 -9 -9 -9 -9 -9 -9 -9 -9 -9 -9 -9 -9 -9 -9 -10 -11 -12 -12 -13 -13 -13 -14 -15 -16 -16 -16 -16 -16 -16 -16 -16 -15
-10 -11 -11 -11 -11 -11 -11 -11 -10 -10 -10 -10 -10 -9 -9 -10 -9 -10 -9 -9 -9 -9 -10 -9 -9 -10 -11 -12 -12 -12 -13 -13 -14 -14 -15 -15 -15 -16 -16 -16 -16 -15 -15 -15
-11 -11 -12 -11 -11 -12 -11 -11 -11 -11 -10 -10 -10 -10 -9 -10 -9 -9 -9 -9 -9 -9 -10 -9 -10 -10 -11 -12 -12 -12 -13 -13 -14 -15 -15 -15 -15 -15 -15 -15 -15 -16 -15 -15
-11 -11 -11 -11 -11 -11 -11 -11 -11 -11 -10 -10 -10 -10 -9 -10 -9 -10 -9 -9 -9 -10 -10 -10 -10 -10 -11 -12 -13 -12 -13 -14 -14 -14 -15 -15 -15 -15 -15 -15 -15 -15 -15 -14
-12 -12 -12 -12 -12 -12 -12 -12 -12 -12 -11 -10 -10 -10 -10 -10 -10 -10 -10 -9 -9 -10 -10 -10 -9 -10 -11 -12 -13 -12 -13 -14 -14 -14 -14 -15 -15 -15 -14 -14 -14 -14 -14 -14
-13 -13 -12 -13 -12 -13 -13 -13 -13 -12 -11 -11 -10 -10 -10 -10 -10 -10 -10 -10 -9 -10 -10 -10 -10 -10 -11 -12 -13 -13 -13 -13 -14 -14 -14 -15 -15 -15 -14 -14 -14 -14 -14 -14
-15 -13 -13 -13 -13 -13 -13 -12 -13 -13 -12 -11 -10 -10 -10 -10 -10 -10 -10 -10 -10 -10 -10 -9 -10 -11 -11 -12 -13 -13 -13 -13 -13 -14 -14 -15 -14 -14 -14 -14 -14 -14 -13 -13
-16 -15 -14 -14 -14 -13 -13 -13 -13 -13 -12 -11 -10 -10 -11 -11 -10 -10 -10 -10 -10 -10 -10 -9 -10 -11 -11 -12 -12 -13 -13 -13 -14 -14 -15 -15 -15 -15 -15 -14 -14 -14 -14 -13
-16 -16 -14 -15 -13 -13 -13 -13 -13 -13 -12 -12 -11 -11 -11 -11 -11 -11 -10 -10 -10 -10 -10 -10 -10 -11 -11 -12 -12 -13 -13 -14 -14 -14 -15 -15 -15 -14 -14 -14 -14 -13 -14 -15
-17 -16 -15 -15 -15 -14 -14 -14 -14 -13 -13 -13 -13 -11 -11 -11 -11 -11 -11 -10 -11 -10 -10 -10 -10 -11 -11 -12 -12 -12 -13 -14 -14 -14 -14 -15 -15 -15 -13 -13 -13 -14 -13 -12
-19 -18 -17 -17 -18 -16 -15 -14 -14 -14 -13 -13 -13 -11 -12 -11 -11 -11 -11 -11 -11 -11 -11 -10 -10 -11 -11 -11 -12 -12 -13 -13 -14 -14 -14 -15 -15 -15 -14 -13 -13 -13 -13 -13
-21 -21 -19 -18 -18 -18 -16 -15 -14 -14 -13 -13 -12 -12 -12 -12 -12 -12 -11 -11 -11 -11 -11 -11 -10 -11 -11 -11 -12 -12 -13 -13 -13 -14 -14 -14 -14 -14 -15 -14 -13 -13 -13 -13
-22 -22 -20 -19 -19 -19 -18 -17 -16 -15 -14 -13 -13 -13 -13 -12 -13 -13 -11 -12 -11 -11 -11 -11 -11 -11 -11 -11 -11 -12 -12 -13 -13 -13 -14 -14 -14 -14 -14 -14 -14 -14 -13 -13
-22 -22 -20 -20 -19 -20 -19 -18 -17 -15 -15 -14 -13 -13 -13 -13 -13 -12 -12 -12 -12 -11 -11 -11 -11 -11 -11 -11 -11 -11 -12 -12 -13 -13 -13 -13 -13 -14 -14 -14 -14 -14 -15 -14
-23 -23 -22 -20 -20 -19 -19 -18 -17 -15 -15 -14 -13 -13 -14 -13 -13 -12 -12 -12 -12 -12 -11 -11 -11 -11 -11 -11 -12 -12 -12 -12 -12 -12 -13 -13 -13 -13 -13 -13 -13 -13 -13 -13
-24 -23 -22 -21 -20 -20 -18 -18 -18 -17 -16 -15 -14 -14 -15 -14 -13 -12 -13 -12 -12 -12 -12 -12 -11 -11 -12 -12 -12 -12 -12 -12 -12 -12 -13 -13 -13 -13 -13 -13 -13 -13 -13 -13
-25 -25 -24 -23 -22 -20 -18 -18 -18 -18 -17 -17 -15 -15 -14 -15 -14 -12 -13 -13 -13 -12 -12 -12 -12 -12 -12 -12 -12 -12 -12 -12 -12 -13 -13 -13 -13 -13 -13 -13 -13 -13 -14 -14
-26 -26 -26 -25 -22 -20 -18 -20 -18 -19 -17 -16 -15 -15 -15 -16 -15 -13 -14 -13 -13 -13 -12 -12 -12 -11 -12 -12 -12 -12 -13 -12 -13 -13 -13 -13 -13 -13 -14 -14 -14 -14 -14 -14
-26 -26 -26 -25 -23 -20 -20 -19 -20 -19 -17 -18 -18 -17 -17 -15 -15 -14 -14 -14 -13 -13 -12 -12 -12 -12 -11 -12 -12 -12 -13 -13 -13 -13 -13 -13 -14 -14 -14 -14 -14 -14 -14 -14
-27 -27 -26 -25 -23 -21 -20 -21 -21 -20 -19 -19 -18 -17 -17 -16 -15 -15 -15 -14 -13 -13 -12 -12 -12 -12 -12 -12 -12 -12 -12 -12 -13 -13 -13 -14 -14 -14 -14 -14 -14 -14 -14 -14
-27 -27 -26 -26 -24 -22 -21 -21 -21 -20 -19 -19 -19 -18 -16 -16 -15 -15 -15 -13 -13 -13 -13 -13 -12 -12 -12 -12 -12 -12 -12 -12 -12 -13 -13 -13 -14 -14 -14 -14 -13 -14 -14 -14
-27 -27 -26 -26 -24 -24 -22 -21 -21 -20 -20 -19 -18 -18 -17 -16 -15 -14 -15 -14 -13 -13 -13 -12 -12 -12 -12 -12 -12 -12 -13 -12 -13 -13 -13 -14 -14 -14 -14 -14 -14 -14 -14 -14
-27 -27 -27 -26 -26 -25 -23 -21 -21 -21 -19 -20 -17 -17 -17 -16 -15 -15 -14 -14 -13 -13 -13 -13 -12 -13 -13 -13 -13 -13 -13 -13 -13 -13 -13 -14 -14 -14 -14 -14 -14 -14 -14 -14
-26 -26 -27 -27 -26 -24 -23 -21 -20 -20 -19 -19 -17 -17 -17 -16 -15 -15 -14 -14 -13 -13 -13 -12 -13 -12 -13 -13 -13 -13 -14 -14 -14 -13 -13 -14 -14 -14 -14 -14 -14 -15 -15 -15
Height
5786 5789 5793 5787 5790 5790 5790 5792 5793 5792 5790 5792 5794 5797 5795 5792 5791 5791 5789 5787 5787 5784 5781 5780 5777 5772 5765 5757 5750 5744 5738 5730 5723 5716 5707 5699 5703 5712 5724 5731 5732 5741 5749 5754
5780 5784 5782 5781 5783 5784 5784 5785 5787 5786 5784 5785 5787 5789 5789 5785 5786 5784 5783 5782 5780 5777 5775 5772 5768 5764 5756 5749 5743 5737 5731 5725 5718 5710 5702 5698 5702 5710 5718 5726 5731 5738 5743 5749
5772 5773 5773 5774 5775 5777 5778 5778 5778 5780 5778 5777 5777 5782 5782 5778 5778 5778 5777 5776 5774 5772 5770 5767 5763 5757 5752 5746 5740 5734 5727 5721 5715 5709 5703 5703 5706 5712 5718 5723 5729 5735 5739 5745
5762 5767 5766 5766 5769 5768 5771 5769 5771 5773 5773 5773 5771 5773 5778 5772 5773 5772 5771 5770 5768 5767 5764 5761 5757 5752 5747 5742 5736 5730 5725 5718 5713 5709 5705 5704 5706 5712 5717 5722 5726 5731 5735 5740
5758 5757 5755 5755 5761 5758 5765 5761 5762 5764 5765 5766 5768 5764 5773 5769 5767 5767 5766 5764 5763 5762 5759 5756 5751 5749 5744 5739 5734 5729 5722 5716 5712 5710 5708 5707 5708 5711 5717 5722 5725 5726 5731 5737
5745 5745 5747 5750 5750 5750 5754 5755 5755 5755 5756 5759 5761 5759 5768 5763 5763 5762 5760 5758 5757 5756 5754 5751 5749 5745 5741 5735 5731 5726 5720 5715 5712 5710 5709 5709 5710 5712 5715 5720 5723 5724 5728 5733
5735 5737 5738 5739 5741 5743 5745 5747 5745 5746 5748 5752 5753 5754 5760 5758 5757 5757 5756 5753 5752 5752 5750 5749 5746 5741 5737 5731 5727 5724 5719 5713 5712 5710 5709 5709 5710 5711 5713 5716 5718 5722 5725 5728
5719 5724 5729 5733 5733 5735 5735 5735 5735 5737 5739 5744 5746 5747 5754 5753 5753 5753 5752 5750 5749 5748 5746 5745 5742 5738 5733 5727 5724 5723 5719 5713 5710 5709 5709 5709 5708 5709 5709 5711 5713 5716 5720 5725
5705 5708 5718 5720 5722 5724 5726 5725 5734 5727 5728 5732 5739 5743 5746 5748 5748 5748 5748 5747 5746 5745 5742 5741 5739 5735 5730 5724 5721 5721 5718 5715 5710 5708 5707 5706 5705 5705 5704 5704 5705 5709 5713 5719
5686 5689 5699 5706 5708 5712 5712 5720 5719 5719 5720 5723 5731 5735 5739 5741 5742 5742 5742 5742 5742 5741 5738 5737 5735 5733 5728 5723 5720 5719 5717 5714 5711 5708 5706 5704 5702 5701 5699 5697 5697 5701 5707 5714
5671 5676 5687 5690 5695 5699 5704 5706 5710 5714 5712 5715 5721 5729 5733 5735 5736 5736 5736 5736 5737 5736 5734 5733 5732 5731 5728 5723 5719 5718 5717 5714 5712 5708 5706 5704 5702 5700 5696 5696 5694 5696 5703 5710
5651 5658 5660 5674 5685 5688 5690 5694 5697 5699 5704 5708 5712 5721 5727 5729 5730 5731 5731 5730 5731 5731 5730 5730 5729 5728 5726 5722 5719 5718 5716 5714 5712 5710 5707 5705 5703 5701 5699 5699 5699 5701 5703 5708
5635 5639 5645 5653 5669 5673 5672 5680 5686 5690 5691 5694 5702 5709 5721 5724 5724 5725 5725 5725 5727 5727 5727 5726 5727 5726 5725 5721 5718 5717 5716 5714 5713 5711 5709 5707 5704 5702 5702 5701 5703 5704 5707 5711
5621 5626 5630 5637 5646 5654 5660 5669 5676 5678 5681 5690 5695 5704 5712 5719 5719 5718 5719 5720 5721 5723 5723 5722 5724 5724 5723 5721 5718 5716 5715 5714 5713 5711 5710 5709 5708 5705 5704 5705 5705 5707 5709 5712
5604 5608 5618 5618 5624 5634 5644 5651 5660 5666 5674 5678 5693 5693 5703 5708 5710 5710 5713 5715 5716 5718 5719 5718 5720 5721 5721 5720 5717 5716 5715 5714 5714 5713 5713 5712 5711 5709 5708 5708 5707 5709 5711 5713
5580 5585 5597 5604 5610 5619 5624 5635 5644 5653 5662 5667 5674 5681 5693 5697 5702 5706 5710 5709 5710 5713 5715 5715 5716 5718 5718 5718 5716 5715 5715 5715 5715 5714 5714 5713 5713 5711 5711 5712 5713 5713 5714 5715
5565 5570 5580 5586 5596 5601 5607 5624 5635 5643 5649 5659 5660 5678 5686 5688 5693 5700 5702 5703 5705 5708 5710 5711 5713 5714 5716 5715 5714 5714 5714 5714 5714 5714 5714 5714 5714 5715 5715 5715 5715 5716 5716 5718
5550 5556 5563 5568 5579 5582 5604 5605 5618 5624 5638 5647 5653 5666 5674 5680 5686 5690 5693 5697 5699 5702 5704 5706 5708 5711 5712 5713 5712 5712 5712 5713 5713 5713 5714 5714 5715 5715 5716 5717 5717 5717 5718 5718
5539 5541 5544 5550 5563 5574 5583 5598 5608 5614 5621 5634 5642 5655 5663 5669 5676 5682 5689 5693 5693 5696 5699 5701 5704 5707 5709 5710 5709 5709 5710 5711 5712 5712 5713 5714 5714 5715 5715 5716 5717 5717 5718 5718
5531 5532 5532 5539 5546 5554 5576 5585 5590 5598 5601 5623 5631 5644 5653 5657 5664 5679 5683 5685 5687 5690 5693 5696 5700 5703 5705 5706 5707 5707 5708 5709 5710 5711 5711 5713 5713 5713 5714 5714 5715 5716 5717 5717
5522 5522 5523 5528 5531 5542 5559 5574 5581 5587 5605 5612 5619 5628 5636 5641 5656 5663 5669 5674 5679 5683 5686 5690 5695 5698 5700 5703 5704 5705 5705 5706 5707 5709 5710 5711 5712 5712 5712 5713 5713 5714 5715 5714
5514 5512 5514 5517 5517 5521 5544 5555 5567 5582 5590 5599 5604 5612 5620 5627 5639 5648 5657 5665 5671 5677 5682 5686 5690 5694 5697 5699 5702 5702 5703 5704 5705 5706 5708 5709 5710 5710 5710 5710 5711 5711 5712 5712
5503 5505 5505 5504 5506 5519 5528 5543 5560 5564 5569 5579 5590 5600 5610 5622 5629 5640 5651 5657 5665 5671 5676 5679 5685 5689 5693 5696 5698 5700 5701 5702 5704 5705 5706 5707 5708 5708 5708 5708 5708 5708 5708 5709
5494 5495 5490 5492 5501 5504 5515 5524 5542 5547 5558 5569 5579 5590 5599 5610 5621 5633 5644 5651 5658 5664 5670 5674 5680 5685 5689 5692 5695 5697 5699 5700 5702 5703 5704 5706 5707 5708 5708 5708 5708 5708 5707 5707
5486 5485 5485 5480 5489 5497 5504 5513 5526 5534 5545 5557 5567 5583 5594 5604 5613 5623 5634 5645 5652 5659 5664 5669 5676 5680 5684 5688 5691 5694 5696 5698 5700 5701 5703 5705 5705 5706 5707 5706 5706 5705 5704 5703
5475 5475 5471 5472 5484 5486 5497 5506 5516 5526 5540 5552 5563 5576 5585 5594 5603 5614 5626 5638 5647 5653 5660 5664 5670 5675 5679 5683 5686 5690 5693 5695 5697 5699 5700 5703 5704 5704 5704 5703 5703 5702 5700 5698
Wind_Speed
29 26 20 28 25 25 23 21 22 25 27 26 23 20 22 27 28 25 24 24 20 23 25 26 29 31 38 43 39 34 35 38 35 30 28 31 32 39 40 42 41 25 33 35
30 23 27 30 27 27 26 25 23 25 29 29 24 21 20 25 24 26 24 21 20 23 23 26 28 31 38 41 32 33 32 30 25 18 15 11 21 29 34 37 36 35 33 28
30 28 29 31 30 28 27 27 27 26 28 29 27 19 20 23 24 24 23 19 21 22 22 24 25 30 36 32 26 29 27 21 16 11 6 2 11 19 27 30 27 29 28 27
35 28 29 31 29 31 29 31 31 29 28 27 29 23 15 25 19 18 19 18 22 19 21 21 24 30 34 26 23 25 22 16 9 6 3 4 7 11 18 22 25 26 27 27
33 32 35 36 30 35 27 32 31 29 30 28 25 29 9 17 19 18 17 21 20 19 20 19 23 29 30 19 17 19 19 12 7 5 4 5 8 11 13 18 20 22 26 28
33 34 34 36 35 34 30 31 32 33 32 29 25 28 12 19 17 17 17 20 19 18 18 17 23 27 27 16 14 15 18 10 6 5 5 6 9 8 11 14 17 22 30 30
37 36 31 32 32 35 32 30 33 35 33 29 29 29 15 19 18 16 17 20 18 17 16 16 21 25 26 16 10 10 16 9 3 3 6 8 10 12 13 16 18 21 30 33
41 41 38 34 34 29 30 34 37 35 36 32 31 29 18 19 19 18 18 21 18 16 14 15 19 23 25 17 8 6 10 7 8 8 7 10 13 15 17 20 24 25 29 34
45 46 43 42 41 40 38 38 31 39 41 39 32 26 22 21 19 17 17 20 17 16 12 14 17 21 22 17 10 7 6 5 3 8 8 12 15 16 17 21 26 30 31 33
55 52 46 42 47 48 50 41 41 42 43 42 34 28 22 21 18 15 16 19 17 15 10 12 15 19 20 16 13 6 7 4 5 2 3 2 2 2 4 6 8 22 33 32
60 57 51 48 47 48 46 48 46 43 44 41 38 31 25 22 19 17 15 19 16 14 11 11 14 16 18 14 12 7 7 6 4 5 4 3 4 3 12 5 2 10 17 19
65 65 65 52 50 49 50 48 45 47 46 41 39 38 30 24 21 18 17 19 16 14 11 11 14 14 16 13 11 9 5 4 4 3 4 6 3 7 8 11 15 9 7 12
64 67 67 63 50 52 57 53 52 51 52 50 45 39 28 24 22 19 18 19 16 14 12 10 14 13 13 11 10 7 5 4 4 4 3 4 4 4 10 10 16 15 17 21
58 58 61 62 56 54 56 55 53 55 55 49 47 39 31 27 26 22 21 20 18 14 13 9 13 13 12 9 8 7 5 4 4 4 3 5 3 1 3 9 19 20 18 16
64 61 54 63 60 54 53 56 53 55 53 52 39 42 35 33 28 28 23 20 20 15 14 10 13 14 11 9 5 5 6 6 5 5 6 7 7 6 2 10 12 13 17 17
64 69 67 64 62 54 55 55 57 53 51 51 50 46 36 37 34 29 21 23 22 18 15 12 13 14 13 10 6 4 2 5 5 6 7 5 5 5 7 9 11 9 9 9
57 70 73 70 69 58 65 47 47 52 52 50 52 39 40 36 36 28 27 27 22 19 14 12 13 14 14 11 8 6 4 1 2 3 3 5 6 7 8 6 6 5 8 7
42 56 73 77 64 72 54 58 49 51 53 51 53 43 38 40 36 30 29 28 21 19 15 13 14 15 14 13 10 8 7 6 3 1 2 4 5 6 6 7 7 6 6 7
27 40 60 75 77 68 65 48 56 51 54 53 54 46 37 44 41 34 26 25 22 21 17 14 13 13 13 14 12 10 9 8 6 4 3 2 2 2 4 3 3 4 4 5
25 31 39 53 75 67 63 56 51 55 56 52 54 47 36 41 45 34 25 27 24 22 17 15 15 15 14 14 14 12 10 8 7 7 5 4 3 2 2 2 2 2 4 4
24 31 35 40 67 77 69 68 55 55 51 54 54 50 43 45 44 36 31 32 28 25 21 19 16 15 15 14 14 11 10 10 9 8 7 6 6 5 4 4 4 3 5 6
25 31 33 39 54 73 73 70 50 46 48 47 48 54 52 48 45 39 37 35 30 25 20 16 15 15 15 15 13 10 8 8 9 8 8 7 7 5 4 4 3 2 6 8
29 29 33 42 50 56 71 74 42 50 59 61 59 45 52 50 50 45 37 35 28 27 24 22 20 18 16 15 15 11 8 7 8 8 7 7 6 4 3 2 3 5 7 12
32 27 37 42 44 45 58 74 61 39 45 54 62 58 40 51 52 51 42 34 30 27 24 22 19 20 17 18 17 12 10 9 7 7 7 8 6 5 2 1 4 6 9 11
34 33 36 41 45 37 40 62 77 55 48 48 56 56 44 45 54 55 46 39 31 28 25 22 21 22 20 20 18 15 13 11 9 7 7 9 6 4 1 1 4 6 9 13
38 38 41 38 43 45 38 55 73 62 50 50 53 56 50 45 57 57 50 42 34 29 27 24 24 23 21 20 19 15 14 12 9 8 8 8 5 4 3 4 6 9 12 16
Wind_Direction
261 263 264 257 256 256 261 265 265 266 263 260 259 255 259 270 276 282 282 278 280 280 288 294 297 307 312 318 317 317 313 310 306 298 295 274 233 225 225 225 225 229 230 236
257 262 256 260 261 258 260 261 263 262 265 265 262 252 260 272 279 278 278 281 277 280 291 295 303 314 321 321 318 317 313 312 309 313 326 279 219 214 219 224 228 232 241 240
255 252 254 259 259 260 259 260 259 262 270 276 271 265 275 279 279 280 277 276 276 283 289 295 308 318 322 321 318 316 311 316 320 337 354 260 201 211 216 214 218 221 230 229
253 251 255 255 256 259 256 259 259 260 262 263 276 276 278 277 281 276 277 276 273 284 288 298 315 320 326 322 326 317 313 321 323 323 337 179 177 198 194 201 214 224 230 219
256 248 248 249 247 251 253 257 261 262 261 261 271 273 248 280 287 283 271 270 280 286 291 306 320 318 327 323 331 332 315 316 331 311 281 216 184 192 204 211 218 226 218 208
254 254 250 253 250 249 249 254 257 257 259 258 262 269 268 283 285 278 274 277 285 289 294 312 310 317 328 327 324 329 316 321 314 285 261 220 207 214 228 227 225 219 209 206
257 251 248 244 245 247 248 251 255 256 258 261 256 260 264 273 284 281 279 278 282 284 292 302 306 320 328 340 327 338 328 296 287 261 222 218 216 225 234 234 228 224 214 205
253 247 246 249 246 251 245 244 246 255 257 256 259 261 262 268 275 279 277 271 274 275 286 300 306 321 328 350 341 330 343 324 229 241 231 229 233 232 230 230 229 227 217 214
252 251 246 247 245 243 242 244 245 249 253 255 253 259 258 266 270 275 272 268 269 267 279 300 306 321 329 350 356 314 304 318 282 237 232 234 242 248 249 247 232 225 220 215
256 253 248 242 242 242 245 241 241 242 248 253 256 254 256 260 267 272 269 270 271 271 284 297 308 317 328 350 5 316 318 324 320 32 99 235 201 204 73 225 224 222 218 223
260 259 249 240 239 240 240 244 244 248 249 249 253 252 249 250 261 266 261 269 273 276 284 297 303 310 323 348 8 355 312 316 308 310 315 36 35 27 46 82 356 222 195 199
258 258 258 249 242 241 241 237 238 238 242 247 252 244 244 248 252 255 256 266 273 273 279 289 293 302 316 345 5 12 14 339 309 290 287 278 176 75 74 124 138 164 193 196
254 255 257 256 245 240 239 235 237 239 240 240 241 241 244 247 253 249 250 257 266 269 270 277 285 293 305 335 359 20 35 47 5 349 316 294 235 158 94 107 154 180 180 194
244 246 253 256 253 238 238 241 237 238 242 245 245 247 238 234 248 248 245 252 259 262 263 263 276 281 290 313 351 8 3 12 23 2 52 71 35 143 98 110 166 160 168 188
236 240 238 248 250 240 234 238 235 240 245 245 243 245 233 228 232 236 232 246 254 255 259 250 266 269 276 283 320 352 40 44 73 96 73 66 52 56 161 157 138 160 191 179
231 229 227 232 239 243 243 230 232 231 235 239 240 236 227 228 226 235 231 236 244 249 249 246 255 258 264 265 268 297 14 87 79 91 106 90 71 93 118 116 89 100 118 128
237 230 225 229 232 234 237 240 242 233 230 234 240 235 228 228 228 220 228 227 234 239 240 243 249 251 253 253 249 250 261 234 127 102 85 93 96 108 104 124 150 104 107 111
235 233 230 227 227 230 219 230 229 225 229 229 237 235 233 229 231 217 221 224 223 227 221 228 239 247 246 245 243 242 243 239 241 279 71 92 111 114 113 125 135 139 141 145
235 234 234 231 227 228 221 212 221 233 220 226 235 232 229 228 226 220 218 226 217 221 217 219 230 239 241 241 236 237 239 238 238 234 227 203 122 117 118 127 140 141 149 160
240 249 248 236 226 219 213 227 218 216 218 215 223 225 228 226 216 217 220 224 215 217 209 208 217 230 235 238 234 232 237 238 242 239 236 231 224 215 220 211 212 224 219 220
247 256 256 243 229 219 219 222 229 227 227 220 224 226 226 222 212 211 204 209 209 212 204 205 213 227 233 238 232 226 232 237 233 241 244 235 234 238 240 254 251 277 292 288
251 270 257 243 232 227 215 218 226 227 220 216 221 223 220 212 207 202 195 204 202 210 200 205 217 217 224 228 221 213 215 232 235 231 240 240 238 239 252 260 271 332 324 308
258 281 262 240 235 229 221 219 222 226 222 218 219 213 217 210 204 193 196 201 196 200 198 194 204 208 215 219 212 209 206 213 223 230 235 243 239 233 237 279 332 331 322 312
261 274 260 240 227 228 229 224 211 215 220 223 219 211 210 212 200 191 197 200 198 196 195 197 204 208 210 213 219 223 219 224 223 226 234 243 227 207 193 344 337 326 319 311
264 264 261 244 226 216 216 217 212 213 203 207 217 207 205 207 199 193 196 201 198 198 196 193 198 202 205 214 224 227 221 221 224 222 230 234 212 191 172 338 311 306 302 302
268 262 248 247 225 218 208 211 208 208 197 205 209 205 212 208 200 194 193 197 197 197 193 192 197 204 208 214 224 220 213 217 220 216 217 235 235 243 237 256 280 295 303 304